Location: Brachbach
(49.1847°N, 9.7240°E)
Time: 11:16:50
(UTC+00:00)

COSMOS 860 DEB - Pass Details

Date: 05 October 2024
Orbit: 890 x 988 km, 64.7° (Epoch: 09 November)

Event Time Altitude Azimuth Distance (km) Brightness Sun altitude
Rises 17:12:25 0° 303° (WNW) 3,616 ? -4.4°
Reaches altitude 10° 17:15:44 10° 320° (NW) 2,690 ? -4.9°
Maximum altitude 17:20:14 20° 6° (N) 2,087 ? -5.7°
Drops below altitude 10° 17:24:47 10° 51° (NE) 2,732 ? -6.4°
Enters shadow 17:26:47 - 63° (ENE) 3,274 ? -6.7°
